TimeEDT,TemperatureF,Dew PointF,Humidity,Sea Level PressureIn,VisibilityMPH,Wind Direction,Wind SpeedMPH,Gust SpeedMPH,PrecipitationIn,Events,Conditions,WindDirDegrees,DateUTC
12:15 AM,55.4,51.8,88,30.30,10.0,Calm,Calm,-,N/A,,Clear,0,2012-10-05 04:15:00
12:35 AM,53.6,51.8,94,30.30,10.0,Calm,Calm,-,N/A,,Clear,0,2012-10-05 04:35:00
12:55 AM,53.6,51.8,94,30.29,10.0,SSW,3.5,-,N/A,,Clear,210,2012-10-05 04:55:00
1:15 AM,53.6,53.6,100,30.29,10.0,SSW,3.5,-,N/A,,Clear,200,2012-10-05 05:15:00
1:35 AM,53.6,53.6,100,30.29,10.0,SSW,3.5,-,N/A,,Clear,210,2012-10-05 05:35:00
1:55 AM,53.6,53.6,100,30.29,10.0,SSW,3.5,-,N/A,,Clear,210,2012-10-05 05:55:00
2:15 AM,53.6,53.6,100,30.29,10.0,SW,3.5,-,N/A,,Clear,220,2012-10-05 06:15:00
2:35 AM,53.6,53.6,100,30.28,10.0,SW,3.5,-,N/A,,Clear,220,2012-10-05 06:35:00
2:55 AM,53.6,53.6,100,30.28,10.0,SSW,3.5,-,N/A,,Clear,210,2012-10-05 06:55:00
3:15 AM,51.8,51.8,100,30.28,10.0,SW,4.6,-,N/A,,Clear,220,2012-10-05 07:15:00
3:35 AM,51.8,51.8,100,30.27,10.0,SW,4.6,-,N/A,,Clear,220,2012-10-05 07:35:00
3:55 AM,51.8,51.8,100,30.27,10.0,SW,4.6,-,N/A,,Clear,220,2012-10-05 07:55:00
4:15 AM,51.8,51.8,100,30.27,10.0,SW,3.5,-,N/A,,Clear,230,2012-10-05 08:15:00
4:35 AM,51.8,51.8,100,30.26,10.0,SW,3.5,-,N/A,,Clear,230,2012-10-05 08:35:00
4:55 AM,51.8,51.8,100,30.26,10.0,SW,3.5,-,N/A,,Clear,220,2012-10-05 08:55:00
5:15 AM,51.8,51.8,100,30.26,10.0,SW,3.5,-,N/A,,Clear,220,2012-10-05 09:15:00
5:35 AM,51.8,51.8,100,30.26,10.0,SSW,4.6,-,N/A,,Clear,200,2012-10-05 09:35:00
5:55 AM,53.6,53.6,100,30.27,10.0,SW,4.6,-,N/A,,Clear,220,2012-10-05 09:55:00
6:15 AM,53.6,53.6,100,30.27,10.0,SW,3.5,-,N/A,,Clear,220,2012-10-05 10:15:00
6:35 AM,53.6,53.6,100,30.27,10.0,Calm,Calm,-,N/A,,Clear,0,2012-10-05 10:35:00
6:55 AM,53.6,53.6,100,30.27,10.0,Calm,Calm,-,N/A,,Clear,0,2012-10-05 10:55:00
7:15 AM,53.6,53.6,100,30.27,10.0,Calm,Calm,-,N/A,,Clear,0,2012-10-05 11:15:00
7:35 AM,53.6,53.6,100,30.27,10.0,Calm,Calm,-,N/A,,Clear,0,2012-10-05 11:35:00
7:55 AM,53.6,53.6,100,30.26,10.0,Calm,Calm,-,N/A,,Clear,0,2012-10-05 11:55:00
8:15 AM,53.6,53.6,100,30.27,7.0,Calm,Calm,-,N/A,,Clear,0,2012-10-05 12:15:00
8:35 AM,55.4,55.4,100,30.27,10.0,Calm,Calm,-,N/A,,Clear,0,2012-10-05 12:35:00
8:55 AM,55.4,55.4,100,30.27,10.0,Calm,Calm,-,N/A,,Clear,0,2012-10-05 12:55:00
9:15 AM,59.0,59.0,100,30.27,10.0,SW,3.5,-,N/A,,Clear,220,2012-10-05 13:15:00
9:35 AM,60.8,59.0,94,30.27,10.0,SW,4.6,-,N/A,,Clear,220,2012-10-05 13:35:00
9:55 AM,62.6,59.0,88,30.27,10.0,SW,4.6,-,N/A,,Clear,220,2012-10-05 13:55:00
10:15 AM,64.4,60.8,88,30.27,10.0,WSW,6.9,-,N/A,,Clear,240,2012-10-05 14:15:00
10:35 AM,64.4,57.2,77,30.26,10.0,WSW,6.9,-,N/A,,Clear,250,2012-10-05 14:35:00
10:55 AM,66.2,57.2,73,30.25,10.0,WSW,5.8,-,N/A,,Clear,250,2012-10-05 14:55:00
11:15 AM,68.0,57.2,68,30.25,10.0,WSW,6.9,-,N/A,,Clear,240,2012-10-05 15:15:00
11:35 AM,68.0,57.2,68,30.24,10.0,WSW,5.8,-,N/A,,Scattered Clouds,250,2012-10-05 15:35:00
11:55 AM,68.0,57.2,68,30.23,10.0,Calm,Calm,-,N/A,,Mostly Cloudy,0,2012-10-05 15:55:00
12:35 PM,69.8,59.0,68,30.22,10.0,Calm,Calm,-,N/A,,Mostly Cloudy,0,2012-10-05 16:35:00
12:55 PM,69.8,59.0,68,30.22,10.0,West,4.6,-,N/A,,Overcast,260,2012-10-05 16:55:00
1:15 PM,68.0,55.4,64,30.21,10.0,Calm,Calm,-,N/A,,Mostly Cloudy,0,2012-10-05 17:15:00
1:35 PM,71.6,57.2,60,30.20,10.0,WSW,5.8,-,N/A,,Mostly Cloudy,240,2012-10-05 17:35:00
1:55 PM,69.8,55.4,60,30.19,10.0,WSW,5.8,-,N/A,,Mostly Cloudy,250,2012-10-05 17:55:00
2:35 PM,73.4,53.6,50,30.17,10.0,SSW,4.6,-,N/A,,Mostly Cloudy,210,2012-10-05 18:35:00
2:55 PM,73.4,53.6,50,30.17,10.0,West,8.1,-,N/A,,Scattered Clouds,270,2012-10-05 18:55:00
3:15 PM,71.6,53.6,53,30.16,10.0,WSW,9.2,-,N/A,,Clear,250,2012-10-05 19:15:00
3:35 PM,71.6,53.6,53,30.15,10.0,WSW,6.9,-,N/A,,Clear,240,2012-10-05 19:35:00
3:55 PM,73.4,53.6,50,30.14,10.0,SSW,4.6,-,N/A,,Clear,200,2012-10-05 19:55:00
4:15 PM,73.4,53.6,50,30.13,10.0,SW,5.8,-,N/A,,Clear,230,2012-10-05 20:15:00
4:35 PM,73.4,51.8,47,30.12,10.0,SW,4.6,-,N/A,,Clear,220,2012-10-05 20:35:00
4:55 PM,73.4,51.8,47,30.12,10.0,WSW,6.9,-,N/A,,Clear,250,2012-10-05 20:55:00
5:15 PM,71.6,53.6,53,30.11,10.0,SSW,5.8,-,N/A,,Clear,210,2012-10-05 21:15:00
5:35 PM,71.6,53.6,53,30.11,10.0,WSW,6.9,-,N/A,,Clear,250,2012-10-05 21:35:00
5:55 PM,69.8,53.6,56,30.12,10.0,SW,9.2,-,N/A,,Clear,230,2012-10-05 21:55:00
6:15 PM,69.8,53.6,56,30.11,10.0,SW,6.9,-,N/A,,Clear,220,2012-10-05 22:15:00
6:35 PM,68.0,53.6,60,30.12,10.0,SW,6.9,-,N/A,,Clear,230,2012-10-05 22:35:00
6:55 PM,64.4,53.6,68,30.11,10.0,SSW,4.6,-,N/A,,Clear,200,2012-10-05 22:55:00
7:15 PM,62.6,53.6,72,30.10,10.0,South,3.5,-,N/A,,Clear,190,2012-10-05 23:15:00
7:35 PM,60.8,53.6,77,30.10,10.0,South,3.5,-,N/A,,Clear,190,2012-10-05 23:35:00
7:55 PM,60.8,53.6,77,30.09,10.0,SSW,3.5,-,N/A,,Clear,210,2012-10-05 23:55:00
8:15 PM,60.8,53.6,77,30.09,10.0,Calm,Calm,-,N/A,,Clear,0,2012-10-06 00:15:00
8:35 PM,60.8,53.6,77,30.10,10.0,Calm,Calm,-,N/A,,Clear,0,2012-10-06 00:35:00
8:55 PM,59.0,53.6,82,30.10,10.0,South,3.5,-,N/A,,Scattered Clouds,190,2012-10-06 00:55:00
9:15 PM,59.0,53.6,82,30.10,10.0,South,4.6,-,N/A,,Scattered Clouds,190,2012-10-06 01:15:00
9:35 PM,60.8,53.6,77,30.10,10.0,South,3.5,-,N/A,,Scattered Clouds,180,2012-10-06 01:35:00
9:55 PM,59.0,53.6,82,30.10,10.0,Calm,Calm,-,N/A,,Clear,0,2012-10-06 01:55:00
10:15 PM,59.0,53.6,82,30.09,10.0,South,3.5,-,N/A,,Clear,170,2012-10-06 02:15:00
10:35 PM,60.8,53.6,77,30.09,10.0,SSE,6.9,-,N/A,,Clear,160,2012-10-06 02:35:00
10:55 PM,60.8,53.6,77,30.09,10.0,South,4.6,-,N/A,,Scattered Clouds,170,2012-10-06 02:55:00
11:35 PM,55.4,53.6,94,30.09,10.0,South,3.5,-,N/A,,Clear,190,2012-10-06 03:35:00
11:55 PM,57.2,53.6,88,30.08,10.0,Calm,Calm,-,N/A,,Clear,0,2012-10-06 03:55:00